Regional Weather Roundup
Issued by NWS Albany, NY

Home | Current Version | Previous Version | Text Only | Print | Product List | Glossary On
Versions: 1 2 3 4 5 6 7 8 9 10 11 12 13 14 15 16 17 18 19 20 21 22 23 24 25 26 27 28
000
ASUS41 KALY 281110
RWRALY

NEW YORK STATE HOURLY WEATHER ROUNDUP
NATIONAL WEATHER SERVICE ALBANY NY
700 AM EDT THU JUL 28 2016

NOTE: "FAIR" INDICATES FEW OR NO CLOUDS BELOW 12,000 FEET WITH NO
SIGNIFICANT WEATHER AND/OR NO OBSTRUCTIONS TO VISIBILITY.

NYZ032-033-038>043-046>054-057>066-NYZ062>081-082-084-281200-
EAST


CITY           SKY/WX    TMP DP  RH WIND       PRES   REMARKS
ALBANY         MOSUNNY   69  63  81 CALM      29.92R
GLENS FALLS    MOSUNNY   69  62  78 CALM      29.92R
POUGHKEEPSIE   SUNNY     67  62  84 CALM      29.92R
NEWBURGH       SUNNY     68  64  88 CALM      29.94S
MONTGOMERY     SUNNY     65  63  93 CALM      29.93S
WHITE PLAINS   SUNNY     73  69  87 NW3       29.92S
ISLIP          PTSUNNY   75  74  96 SW3       29.91S FOG
NEW YORK CITY  MOSUNNY   80  73  79 CALM      29.91R
CENTRAL PARK   MOSUNNY   78  72  81 CALM      29.94R
$$

NYZ005>009-017-018-044>046-055-056-281200-
CENTRAL


CITY           SKY/WX    TMP DP  RH WIND       PRES   REMARKS
FULTON         CLOUDY    69  65  86 CALM      29.92R
SYRACUSE       PTSUNNY   69  64  84 CALM      29.91R
ROME           MOSUNNY   65  63  93 E3        29.94R
ELMIRA         MOCLDY    63  59  87 CALM      29.95S
BINGHAMTON     SUNNY     66  60  81 CALM      29.97S
MONTICELLO     SUNNY     63  61  94 CALM      30.00R
$$

NYZ026>034-041>043-087-281200-
NORTH


CITY           SKY/WX    TMP DP  RH WIND       PRES   REMARKS
WATERTOWN      CLOUDY    70  67  90 S6        29.89S FOG
FORT DRUM      NOT AVBL
MASSENA        PTSUNNY   67  63  87 CALM      29.90R
SARANAC LAKE   CLOUDY    61  56  83 CALM      29.95R
PLATTSBURGH    MOSUNNY   70  65  84 CALM      29.88R
$$

NYZ001>004-010>016-019>021-085-281200-
WEST


CITY           SKY/WX    TMP DP  RH WIND       PRES   REMARKS
NIAGARA FALLS  MOCLDY    70  66  87 CALM      29.92R FOG
BUFFALO        MOCLDY    68  61  78 S5        29.94R
DUNKIRK        CLOUDY    64  60  87 CALM      29.94R
JAMESTOWN      MOCLDY    63  57  82 S5        29.99R
WELLSVILLE     PTCLDY    62  59  90 CALM      30.02R
ROCHESTER      MOCLDY    67  63  87 SW6       29.94R
PENN YAN       MOSUNNY   68  64  87 SW5       29.95S
$$

             KEY
       WCI = WIND CHILL INDEX
       VSB = VISIBILITY
       HX  = HEAT INDEX
$$




USA.gov is the U.S. government's official web portal to all federal, state and local government web resources and services.